TimeEST,TemperatureF,Dew PointF,Humidity,Sea Level PressureIn,VisibilityMPH,Wind Direction,Wind SpeedMPH,Gust SpeedMPH,PrecipitationIn,Events,Conditions,WindDirDegrees,DateUTC
12:52 AM,35.1,19.0,52,30.17,10.0,WNW,5.8,-,N/A,,Clear,290,2012-12-12 05:52:00
1:52 AM,34.0,19.0,54,30.19,10.0,WNW,4.6,-,N/A,,Clear,300,2012-12-12 06:52:00
2:52 AM,30.9,19.9,64,30.20,10.0,WNW,3.5,-,N/A,,Clear,290,2012-12-12 07:52:00
3:52 AM,30.9,19.9,64,30.22,10.0,WNW,3.5,-,N/A,,Clear,300,2012-12-12 08:52:00
4:52 AM,30.9,19.0,61,30.25,10.0,NW,3.5,-,N/A,,Clear,310,2012-12-12 09:52:00
5:52 AM,28.9,19.9,69,30.28,10.0,Calm,Calm,-,N/A,,Clear,0,2012-12-12 10:52:00
6:52 AM,26.1,21.0,81,30.30,10.0,Calm,Calm,-,N/A,,Clear,0,2012-12-12 11:52:00
7:52 AM,28.9,24.1,82,30.33,10.0,Calm,Calm,-,N/A,,Clear,0,2012-12-12 12:52:00
8:52 AM,35.1,21.0,57,30.34,10.0,WNW,3.5,-,N/A,,Clear,300,2012-12-12 13:52:00
9:52 AM,37.0,21.0,52,30.36,10.0,NNW,5.8,-,N/A,,Clear,340,2012-12-12 14:52:00
10:52 AM,39.0,21.0,49,30.35,10.0,Variable,6.9,-,N/A,,Clear,0,2012-12-12 15:52:00
11:52 AM,39.0,19.9,46,30.35,10.0,NNW,9.2,-,N/A,,Clear,340,2012-12-12 16:52:00
12:52 PM,39.9,19.9,45,30.33,10.0,NW,4.6,-,N/A,,Clear,320,2012-12-12 17:52:00
1:52 PM,39.9,19.9,45,30.33,10.0,WNW,4.6,-,N/A,,Clear,300,2012-12-12 18:52:00
2:52 PM,39.9,19.0,43,30.34,10.0,Calm,Calm,-,N/A,,Clear,0,2012-12-12 19:52:00
3:52 PM,37.9,19.9,48,30.36,10.0,Calm,Calm,-,N/A,,Clear,0,2012-12-12 20:52:00
4:52 PM,30.9,25.0,79,30.37,10.0,Calm,Calm,-,N/A,,Clear,0,2012-12-12 21:52:00
5:52 PM,30.0,24.1,79,30.38,10.0,Calm,Calm,-,N/A,,Clear,0,2012-12-12 22:52:00
6:52 PM,28.9,24.1,82,30.40,10.0,Calm,Calm,-,N/A,,Clear,0,2012-12-12 23:52:00
7:52 PM,28.9,25.0,85,30.40,10.0,Calm,Calm,-,N/A,,Clear,0,2012-12-13 00:52:00
8:52 PM,28.0,25.0,88,30.40,10.0,Calm,Calm,-,N/A,,Clear,0,2012-12-13 01:52:00
9:52 PM,28.0,25.0,88,30.43,8.0,Calm,Calm,-,N/A,,Clear,0,2012-12-13 02:52:00
10:52 PM,27.0,24.1,89,30.42,6.0,Calm,Calm,-,N/A,,Clear,0,2012-12-13 03:52:00
11:52 PM,26.1,23.0,88,30.42,7.0,Calm,Calm,-,N/A,,Clear,0,2012-12-13 04:52:00